Flag for Spain Weather past 2 weeks in Granada, Spain

Now
46 °F

Clear.


Feels Like: 46 °F
Forecast: 40 / 76 °F
Wind: No wind

Location: Granada / Aeropuerto

Current Time: Apr 18, 2015 at 7:38:15 AM

Latest Report: Apr 18, 2015 at 7:00 AM


Visibility: 10 mi

Pressure: 30.01 "Hg

Humidity: 100%

Dew point: 46 °F

Location of GranadaLocation

Historic Weather in Granada — Graph

°F

Granada temperature yesterday

Maximum temperature yesterday: 75 °F (at 5:00 PM)
Minimum temperature yesterday: 46 °F (at 6:30 AM)
Average temperature yesterday: 63 °F

Past Weeks' High & Low Weather Summary

 TemperatureHumidityPressure
High84 °F (Apr 14, 4:30 PM)100% (Apr 3, 8:00 AM)30.24 "Hg (Apr 3, 8:00 AM)
Low41 °F (Apr 12, 7:30 AM)14% (Apr 14, 4:30 PM)29.77 "Hg (Apr 5, 4:30 PM)
Average62 °F60%30.07 "Hg
* Reported Apr 3 6:00 AM — Apr 18 6:30 AM, Granada, Weather by CustomWeather, © 2015

Note: Actual official high and low records may vary slightly from our data, if they occured in-between our weather recording intervals... More about our weather records

Advertising

Granada weather history for previous 24 hours

 ConditionsComfort  
Time TempWeatherWind HumidityBarometerVisibility
6:30 AM
Sat, Apr 18
48 °FClear.No wind100%30.01 "Hg10 mi
6:00 AM50 °FClear.1 mph94%30.01 "Hg10 mi
11:00 PM
Fri, Apr 17
61 °FPassing clouds.2 mph72%30.07 "HgN/A
10:30 PM61 °FPassing clouds.5 mph77%30.04 "HgN/A
10:00 PM63 °FPassing clouds.3 mph68%30.04 "HgN/A
9:30 PM64 °FPassing clouds.3 mph64%30.01 "HgN/A
9:00 PM66 °FPassing clouds.3 mph60%30.01 "HgN/A
8:30 PM68 °FPassing clouds.6 mph56%30.01 "HgN/A
8:00 PM68 °FPassing clouds.6 mph53%30.01 "HgN/A
7:30 PM70 °FPassing clouds.9 mph46%29.98 "HgN/A
7:00 PM73 °FPassing clouds.7 mph41%29.98 "HgN/A
6:30 PM73 °FPassing clouds.9 mph38%29.98 "HgN/A
6:00 PM75 °FPassing clouds.6 mph39%29.98 "HgN/A
5:30 PM75 °FPassing clouds.8 mph41%30.01 "HgN/A
5:00 PM75 °FPassing clouds.5 mph39%30.01 "HgN/A
4:30 PM73 °FPassing clouds.2 mph44%30.01 "HgN/A
4:00 PM73 °FPassing clouds.6 mph44%30.04 "HgN/A
3:30 PM73 °FPassing clouds.3 mph44%30.04 "HgN/A
3:00 PM72 °FPassing clouds.1 mph47%30.07 "HgN/A
2:30 PM70 °FPassing clouds.5 mph50%30.07 "HgN/A
2:00 PM68 °FPassing clouds.1 mph53%30.07 "HgN/A
1:30 PM68 °FPassing clouds.1 mph53%30.09 "HgN/A
1:00 PM68 °FPassing clouds.2 mph49%30.09 "HgN/A
12:30 PM64 °FPassing clouds.1 mph60%30.09 "HgN/A
12:00 PM63 °FPassing clouds.2 mph64%30.12 "HgN/A
11:30 AM61 °FPassing clouds.No wind63%30.12 "HgN/A
11:00 AM61 °FSunny.No wind68%30.12 "Hg10 mi
10:30 AM55 °FSunny.1 mph82%30.12 "Hg10 mi
10:00 AM55 °FSunny.No wind82%30.12 "Hg10 mi
9:30 AM52 °FClear.No wind94%30.12 "Hg6 mi
9:00 AM50 °FSunny.No wind94%30.12 "Hg10 mi
8:30 AM48 °FClear.No wind94%30.12 "Hg10 mi
8:00 AM46 °FClear.No wind93%30.12 "Hg6 mi
7:30 AM46 °FClear.No wind93%30.09 "Hg5 mi
7:00 AM46 °FClear.1 mph100%30.09 "Hg6 mi
Weather by CustomWeather, © 2015

See weather overviewHow to use our weather pages